DMSP 5D-2 F11 DEB, 28322

Orbit data source: Space-Track

DMSP 5D-2 F11 DEB, 28322 is space debris in SSO originally from a launch on Thu, 28 Nov 1991 UTC launched from the Air Force Western Test Range (AFWTR). Debris objects in space refer to the collection of defunct objects orbiting the Earth. Examples of debris include non-operational satellites, rocket bodies, and fragments generated from explosions, collisions, or faulty payload assembly.

Loading next visibility...
Identifier
28322, 1991-082AK
Orbit
SSO
Last TLE update
10 hours ago
Origin
Manufacturer
Unknown
Mission
Spacecraft
Bus & Motor
Unknown
Mass
Unknown
Launch date (UTC)
1991-11-28 (34 years ago)
Launch vehicle
Unknown
Launch site
Air Force Western Test Range (AFWTR)
Object type
Payload
Rocket body
Debris
Shape & HBR
Unknown
Radar Cross Section
Small (<0.1 m²)

Expand to show TLE details & history

TLE from 10 hours ago
0 DMSP 5D-2 F11 DEB
1 28322U 91082AK  25199.32391870  .00000652  00000-0  45669-3 0  9992
2 28322  98.5639 214.7306 0114071  79.0568 294.6874 13.98513992 80975
Epoch: 2025-07-18T07:46Z
TLE epoch observation values (Epoch: 2025-07-18T07:46:26.575Z)
Latitude
12.36748°
Longitude
159.86058°
Altitude
867.189 km
Speed
7.437 km/s
True Right ascension
14h 11m 23s
True Declination
12° 17' 49"
Sunlit
Object was in daylight at epoch
Visualization orbit readout
Latitude
-63.43355°
Longitude
179.56335°
Altitude
988.673 km
Speed
7.323 km/s
Apparent Right ascension
17h 17m 56s
Apparent Declination
-54° 25' 23"
Sunlit
Object is in partial shadow
Visualization observer readout
Local Sidereal Time
06:29:04
Azimuth
146.491° SSE
Elevation
-71.227°
Doppler factor
1
Orbital elements
Apogee altitude
979.104 km
Perigee altitude
813.147 km
Semi-major axis
7,274.262 km
Eccentricity
0.01141
Inclination
98.5639°
RAAN
214.7306°
Arg. of periapsis
79.0568°
True anomaly
293.49269°
Mean anomaly
294.6874°
Eccentric anomaly
294.09075°
Mean motion
3.49832 °/min
Orbital period
102.91 mins
BSTAR
0.00045669
Loading maneuver chart data...
Loading SW <> Apogee altitude chart data...
|